軌道要素
Epoch 2023 Feb. 25.0 TT = JDT 2460000.5
T 2020 Dec. 1.39359 TT Rudenko
q 1.7054282 (2000.0) P Q
z +0.0005471 Peri. 193.42328 -0.93833808 +0.25573175
+/-0.0000007 Node 13.57327 -0.14517812 +0.31924491
e 0.9990669 Incl. 82.43013 -0.31375940 -0.91251518
>From 2056 observations 2019 June 10-2022 Jan. 29, mean residual 1".1.
|